Location: Ku?niki
(51.4449°N, 17.8974°E)
Time: 07:12:48
(UTC+00:00)

CREW DRAGON DEMO-1 DEB - Pass Details

Date: 18 September 2020
Orbit: 362 x 365 km, 51.6° (Epoch: 19 October)

Event Time Altitude Azimuth Distance (km) Brightness Sun altitude
Rises 18:43:08 0° 276° (W) 2,200 8.1 -17.1°
Reaches altitude 10° 18:45:10 10° 277° (W) 1,353 6.7 -17.4°
Maximum altitude 18:48:11 90° 181° (S) 369 2.6 -17.8°
Enters shadow 18:48:25 74° 98° (E) 383 2.6 -17.8°
